Year,Month,Day,Hour,Minute,Value (Times are PST for temperature in C)
2016,02,08,00,00,6.30
2016,02,08,00,01,6.30
2016,02,08,00,02,6.30
2016,02,08,00,03,6.30
2016,02,08,00,04,6.30
2016,02,08,00,05,6.30
2016,02,08,00,06,6.30
2016,02,08,00,07,6.30
2016,02,08,00,08,6.30
2016,02,08,00,09,6.20
2016,02,08,00,10,6.20
2016,02,08,00,11,6.20
2016,02,08,00,12,6.20
2016,02,08,00,13,6.20
2016,02,08,00,14,6.20
2016,02,08,00,15,6.20
2016,02,08,00,16,6.20
2016,02,08,00,17,6.20
2016,02,08,00,18,6.20
2016,02,08,00,19,6.20
2016,02,08,00,20,6.20
2016,02,08,00,21,6.20
2016,02,08,00,22,6.20
2016,02,08,00,23,6.30
2016,02,08,00,24,6.30
2016,02,08,00,25,6.20
2016,02,08,00,26,6.20
2016,02,08,00,27,6.20
2016,02,08,00,28,6.20
2016,02,08,00,29,6.20
2016,02,08,00,30,6.20
2016,02,08,00,31,6.20
2016,02,08,00,32,6.20
2016,02,08,00,33,6.20
2016,02,08,00,34,6.20
2016,02,08,00,35,6.20
2016,02,08,00,36,6.20
2016,02,08,00,37,6.20
2016,02,08,00,38,6.20
2016,02,08,00,39,6.20
2016,02,08,00,40,6.20
2016,02,08,00,41,6.20
2016,02,08,00,42,6.20
2016,02,08,00,43,6.20
2016,02,08,00,44,6.20
2016,02,08,00,45,6.20
2016,02,08,00,46,6.20
2016,02,08,00,47,6.20
2016,02,08,00,48,6.20
2016,02,08,00,49,6.20
2016,02,08,00,50,6.20
2016,02,08,00,51,6.20
2016,02,08,00,52,6.20
2016,02,08,00,53,6.20
2016,02,08,00,54,6.20
2016,02,08,00,55,6.20
2016,02,08,00,56,6.20
2016,02,08,00,57,6.20
2016,02,08,00,58,6.20
2016,02,08,00,59,6.20
2016,02,08,01,00,6.20
2016,02,08,01,01,6.20
2016,02,08,01,02,6.20
2016,02,08,01,03,6.20
2016,02,08,01,04,6.20
2016,02,08,01,05,6.20
2016,02,08,01,06,6.20
2016,02,08,01,07,6.20
2016,02,08,01,08,6.20
2016,02,08,01,09,6.20
2016,02,08,01,10,6.20
2016,02,08,01,11,6.20
2016,02,08,01,12,6.20
2016,02,08,01,13,6.10
2016,02,08,01,14,6.10
2016,02,08,01,15,6.10
2016,02,08,01,16,6.10
2016,02,08,01,17,6.10
2016,02,08,01,18,6.10
2016,02,08,01,19,6.10
2016,02,08,01,20,6.10
2016,02,08,01,21,6.10
2016,02,08,01,22,6.10
2016,02,08,01,23,6.10
2016,02,08,01,24,6.10
2016,02,08,01,25,6.10
2016,02,08,01,26,6.10
2016,02,08,01,27,6.10
2016,02,08,01,28,6.00
2016,02,08,01,29,6.00
2016,02,08,01,30,6.00
2016,02,08,01,31,6.00
2016,02,08,01,32,6.00
2016,02,08,01,33,6.00
2016,02,08,01,34,5.90
2016,02,08,01,35,5.90
2016,02,08,01,36,5.90
2016,02,08,01,37,5.90
2016,02,08,01,38,5.90
2016,02,08,01,39,5.90
2016,02,08,01,40,5.90
2016,02,08,01,41,5.90
2016,02,08,01,42,5.90
2016,02,08,01,43,5.90
2016,02,08,01,44,5.80
2016,02,08,01,45,5.80
2016,02,08,01,46,5.80
2016,02,08,01,47,5.80
2016,02,08,01,48,5.80
2016,02,08,01,49,5.80
2016,02,08,01,50,5.80
2016,02,08,01,51,5.80
2016,02,08,01,52,5.80
2016,02,08,01,53,5.80
2016,02,08,01,54,5.80
2016,02,08,01,55,5.80
2016,02,08,01,56,5.80
2016,02,08,01,57,5.80
2016,02,08,01,58,5.80
2016,02,08,01,59,5.70
2016,02,08,02,00,5.70
2016,02,08,02,01,5.70
2016,02,08,02,02,5.70
2016,02,08,02,03,5.70
2016,02,08,02,04,5.70
2016,02,08,02,05,5.70
2016,02,08,02,06,5.70
2016,02,08,02,07,5.70
2016,02,08,02,08,5.70
2016,02,08,02,09,5.70
2016,02,08,02,10,5.70
2016,02,08,02,11,5.70
2016,02,08,02,12,5.60
2016,02,08,02,13,5.60
2016,02,08,02,14,5.60
2016,02,08,02,15,5.60
2016,02,08,02,16,5.60
2016,02,08,02,17,5.60
2016,02,08,02,18,5.60
2016,02,08,02,19,5.60
2016,02,08,02,20,5.60
2016,02,08,02,21,5.60
2016,02,08,02,22,5.60
2016,02,08,02,23,5.60
2016,02,08,02,24,5.50
2016,02,08,02,25,5.50
2016,02,08,02,26,5.50
2016,02,08,02,27,5.50
2016,02,08,02,28,5.50
2016,02,08,02,29,5.50
2016,02,08,02,30,5.50
2016,02,08,02,31,5.50
2016,02,08,02,32,5.50
2016,02,08,02,33,5.40
2016,02,08,02,34,5.40
2016,02,08,02,35,5.40
2016,02,08,02,36,5.40
2016,02,08,02,37,5.40
2016,02,08,02,38,5.40
2016,02,08,02,39,5.40
2016,02,08,02,40,5.40
2016,02,08,02,41,5.40
2016,02,08,02,42,5.40
2016,02,08,02,43,5.40
2016,02,08,02,44,5.40
2016,02,08,02,45,5.40
2016,02,08,02,46,5.30
2016,02,08,02,47,5.30
2016,02,08,02,48,5.30
2016,02,08,02,49,5.30
2016,02,08,02,50,5.30
2016,02,08,02,51,5.30
2016,02,08,02,52,5.30
2016,02,08,02,53,5.30
2016,02,08,02,54,5.30
2016,02,08,02,55,5.20
2016,02,08,02,56,5.20
2016,02,08,02,57,5.20
2016,02,08,02,58,5.20
2016,02,08,02,59,5.20
2016,02,08,03,00,5.20
2016,02,08,03,01,5.20
2016,02,08,03,02,5.10
2016,02,08,03,06,5.10
2016,02,08,03,07,5.10
2016,02,08,03,08,5.10
2016,02,08,03,09,5.00
2016,02,08,03,10,5.00
2016,02,08,03,11,5.00
2016,02,08,03,12,4.90
2016,02,08,03,13,4.90
2016,02,08,03,14,4.90
2016,02,08,03,15,4.90
2016,02,08,03,16,4.80
2016,02,08,03,17,4.80
2016,02,08,03,18,4.80
2016,02,08,03,19,4.80
2016,02,08,03,20,4.70
2016,02,08,03,21,4.70
2016,02,08,03,22,4.70
2016,02,08,03,23,4.70
2016,02,08,03,24,4.70
2016,02,08,03,25,4.70
2016,02,08,03,26,4.60
2016,02,08,03,27,4.60
2016,02,08,03,28,4.60
2016,02,08,03,29,4.60
2016,02,08,03,30,4.60
2016,02,08,03,31,4.50
2016,02,08,03,32,4.50
2016,02,08,03,33,4.50
2016,02,08,03,34,4.40
2016,02,08,03,35,4.40
2016,02,08,03,36,4.40
2016,02,08,03,37,4.40
2016,02,08,03,38,4.40
2016,02,08,03,39,4.40
2016,02,08,03,40,4.30
2016,02,08,03,41,4.30
2016,02,08,03,42,4.30
2016,02,08,03,43,4.30
2016,02,08,03,44,4.30
2016,02,08,03,45,4.30
2016,02,08,03,46,4.30
2016,02,08,03,47,4.30
2016,02,08,03,48,4.30
2016,02,08,03,49,4.30
2016,02,08,03,50,4.30
2016,02,08,03,51,4.30
2016,02,08,03,52,4.30
2016,02,08,03,53,4.30
2016,02,08,03,54,4.20
2016,02,08,03,55,4.20
2016,02,08,03,56,4.20
2016,02,08,03,57,4.20
2016,02,08,03,58,4.20
2016,02,08,03,59,4.20
2016,02,08,04,00,4.20
2016,02,08,04,01,4.20
2016,02,08,04,02,4.20
2016,02,08,04,03,4.20
2016,02,08,04,04,4.20
2016,02,08,04,05,4.20
2016,02,08,04,06,4.20
2016,02,08,04,07,4.20
2016,02,08,04,08,4.20
2016,02,08,04,09,4.20
2016,02,08,04,10,4.20
2016,02,08,04,11,4.20
2016,02,08,04,12,4.20
2016,02,08,04,13,4.20
2016,02,08,04,14,4.20
2016,02,08,04,15,4.20
2016,02,08,04,16,4.20
2016,02,08,04,17,4.20
2016,02,08,04,18,4.20
2016,02,08,04,19,4.20
2016,02,08,04,20,4.20
2016,02,08,04,21,4.20
2016,02,08,04,22,4.10
2016,02,08,04,23,4.10
2016,02,08,04,24,4.10
2016,02,08,04,25,4.10
2016,02,08,04,26,4.10
2016,02,08,04,27,4.10
2016,02,08,04,28,4.10
2016,02,08,04,29,4.10
2016,02,08,04,30,4.10
2016,02,08,04,31,4.10
2016,02,08,04,32,4.10
2016,02,08,04,33,4.10
2016,02,08,04,34,4.10
2016,02,08,04,35,4.10
2016,02,08,04,36,4.10
2016,02,08,04,37,4.10
2016,02,08,04,38,4.10
2016,02,08,04,39,4.10
2016,02,08,04,40,4.00
2016,02,08,04,41,4.00
2016,02,08,04,42,4.00
2016,02,08,04,43,4.00
2016,02,08,04,44,4.00
2016,02,08,04,45,3.90
2016,02,08,04,46,3.90
2016,02,08,04,47,3.90
2016,02,08,04,48,3.90
2016,02,08,04,49,3.90
2016,02,08,04,50,3.90
2016,02,08,04,51,3.90
2016,02,08,04,52,3.90
2016,02,08,04,53,3.80
2016,02,08,04,54,3.80
2016,02,08,04,55,3.80
2016,02,08,04,56,3.80
2016,02,08,04,57,3.80
2016,02,08,04,58,3.80
2016,02,08,04,59,3.80
2016,02,08,05,00,3.80
2016,02,08,05,01,3.80
2016,02,08,05,02,3.80
2016,02,08,05,03,3.80
2016,02,08,05,04,3.80
2016,02,08,05,05,3.80
2016,02,08,05,06,3.80
2016,02,08,05,07,3.80
2016,02,08,05,08,3.80
2016,02,08,05,09,3.80
2016,02,08,05,10,3.80
2016,02,08,05,11,3.80
2016,02,08,05,12,3.70
2016,02,08,05,13,3.70
2016,02,08,05,14,3.70
2016,02,08,05,15,3.70
2016,02,08,05,16,3.70
2016,02,08,05,17,3.70
2016,02,08,05,18,3.70
2016,02,08,05,19,3.70
2016,02,08,05,20,3.70
2016,02,08,05,21,3.70
2016,02,08,05,22,3.70
2016,02,08,05,23,3.80
2016,02,08,05,24,3.80
2016,02,08,05,25,3.80
2016,02,08,05,26,3.90
2016,02,08,05,27,3.90
2016,02,08,05,28,3.90
2016,02,08,05,29,3.90
2016,02,08,05,30,4.00
2016,02,08,05,31,4.00
2016,02,08,05,32,4.10
2016,02,08,05,33,4.10
2016,02,08,05,34,4.10
2016,02,08,05,35,4.10
2016,02,08,05,36,4.20
2016,02,08,05,37,4.20
2016,02,08,05,38,4.20
2016,02,08,05,39,4.20
2016,02,08,05,40,4.20
2016,02,08,05,41,4.20
2016,02,08,05,42,4.20
2016,02,08,05,43,4.20
2016,02,08,05,44,4.20
2016,02,08,05,45,4.20
2016,02,08,05,46,4.20
2016,02,08,05,47,4.20
2016,02,08,05,48,4.20
2016,02,08,05,49,4.20
2016,02,08,05,50,4.20
2016,02,08,05,51,4.20
2016,02,08,05,52,4.10
2016,02,08,05,53,4.10
2016,02,08,05,54,4.10
2016,02,08,05,55,4.10
2016,02,08,05,56,4.10
2016,02,08,05,57,4.10
2016,02,08,05,58,4.10
2016,02,08,05,59,4.00
2016,02,08,06,00,4.00
2016,02,08,06,01,4.00
2016,02,08,06,02,3.90
2016,02,08,06,03,3.90
2016,02,08,06,04,3.90
2016,02,08,06,05,3.90
2016,02,08,06,06,3.80
2016,02,08,06,07,3.80
2016,02,08,06,08,3.80
2016,02,08,06,09,3.70
2016,02,08,06,10,3.70
2016,02,08,06,11,3.70
2016,02,08,06,12,3.70
2016,02,08,06,13,3.60
2016,02,08,06,14,3.60
2016,02,08,06,15,3.60
2016,02,08,06,16,3.50
2016,02,08,06,17,3.50
2016,02,08,06,18,3.50
2016,02,08,06,19,3.40
2016,02,08,06,20,3.40
2016,02,08,06,21,3.40
2016,02,08,06,22,3.40
2016,02,08,06,23,3.30
2016,02,08,06,24,3.30
2016,02,08,06,25,3.30
2016,02,08,06,26,3.30
2016,02,08,06,27,3.30
2016,02,08,06,28,3.30
2016,02,08,06,29,3.30
2016,02,08,06,30,3.20
2016,02,08,06,31,3.20
2016,02,08,06,32,3.20
2016,02,08,06,33,3.20
2016,02,08,06,34,3.20
2016,02,08,06,35,3.20
2016,02,08,06,36,3.20
2016,02,08,06,37,3.10
2016,02,08,06,38,3.10
2016,02,08,06,39,3.10
2016,02,08,06,40,3.10
2016,02,08,06,41,3.10
2016,02,08,06,42,3.00
2016,02,08,06,43,3.00
2016,02,08,06,44,3.00
2016,02,08,06,45,2.90
2016,02,08,06,46,2.90
2016,02,08,06,47,2.90
2016,02,08,06,48,2.90
2016,02,08,06,49,2.90
2016,02,08,06,50,2.90
2016,02,08,06,51,2.80
2016,02,08,06,52,2.80
2016,02,08,06,53,2.80
2016,02,08,06,54,2.80
2016,02,08,06,55,2.80
2016,02,08,06,56,2.80
2016,02,08,06,57,2.80
2016,02,08,06,58,2.80
2016,02,08,06,59,2.80
2016,02,08,07,00,2.70
2016,02,08,07,01,2.70
2016,02,08,07,02,2.70
2016,02,08,07,03,2.70
2016,02,08,07,04,2.70
2016,02,08,07,05,2.70
2016,02,08,07,06,2.70
2016,02,08,07,07,2.70
2016,02,08,07,08,2.70
2016,02,08,07,09,2.70
2016,02,08,07,10,2.70
2016,02,08,07,11,2.60
2016,02,08,07,12,2.60
2016,02,08,07,13,2.60
2016,02,08,07,14,2.60
2016,02,08,07,15,2.60
2016,02,08,07,16,2.60
2016,02,08,07,17,2.60
2016,02,08,07,18,2.60
2016,02,08,07,19,2.60
2016,02,08,07,20,2.60
2016,02,08,07,21,2.60
2016,02,08,07,22,2.60
2016,02,08,07,23,2.60
2016,02,08,07,24,2.60
2016,02,08,07,25,2.60
2016,02,08,07,26,2.60
2016,02,08,07,27,2.60
2016,02,08,07,28,2.60
2016,02,08,07,29,2.60
2016,02,08,07,30,2.50
2016,02,08,07,31,2.50
2016,02,08,07,32,2.50
2016,02,08,07,33,2.50
2016,02,08,07,34,2.50
2016,02,08,07,35,2.50
2016,02,08,07,36,2.50
2016,02,08,07,37,2.40
2016,02,08,07,38,2.40
2016,02,08,07,39,2.40
2016,02,08,07,40,2.40
2016,02,08,07,41,2.40
2016,02,08,07,42,2.40
2016,02,08,07,43,2.40
2016,02,08,07,44,2.40
2016,02,08,07,45,2.30
2016,02,08,07,46,2.30
2016,02,08,07,47,2.30
2016,02,08,07,48,2.30
2016,02,08,07,49,2.30
2016,02,08,07,50,2.30
2016,02,08,07,51,2.30
2016,02,08,07,52,2.20
2016,02,08,07,53,2.20
2016,02,08,07,54,2.20
2016,02,08,07,55,2.20
2016,02,08,07,56,2.20
2016,02,08,07,57,2.20
2016,02,08,07,58,2.20
2016,02,08,07,59,2.10
2016,02,08,08,00,2.10
2016,02,08,08,01,2.10
2016,02,08,08,02,2.10
2016,02,08,08,03,2.10
2016,02,08,08,04,2.10
2016,02,08,08,05,2.10
2016,02,08,08,06,2.10
2016,02,08,08,07,2.10
2016,02,08,08,08,2.10
2016,02,08,08,09,2.10
2016,02,08,08,10,2.10
2016,02,08,08,11,2.10
2016,02,08,08,12,2.10
2016,02,08,08,13,2.10
2016,02,08,08,14,2.10
2016,02,08,08,15,2.10
2016,02,08,08,16,2.10
2016,02,08,08,17,2.10
2016,02,08,08,18,2.10
2016,02,08,08,19,2.20
2016,02,08,08,20,2.20
2016,02,08,08,21,2.20
2016,02,08,08,22,2.20
2016,02,08,08,23,2.30
2016,02,08,08,24,2.30
2016,02,08,08,25,2.30
2016,02,08,08,26,2.30
2016,02,08,08,27,2.40
2016,02,08,08,28,2.40
2016,02,08,08,29,2.40
2016,02,08,08,30,2.50
2016,02,08,08,31,2.50
2016,02,08,08,32,2.50
2016,02,08,08,33,2.60
2016,02,08,08,34,2.60
2016,02,08,08,35,2.60
2016,02,08,08,36,2.60
2016,02,08,08,37,2.60
2016,02,08,08,38,2.60
2016,02,08,08,39,2.60
2016,02,08,08,40,2.60
2016,02,08,08,41,2.60
2016,02,08,08,42,2.60
2016,02,08,08,43,2.60
2016,02,08,08,44,2.60
2016,02,08,08,45,2.60
2016,02,08,08,46,2.60
2016,02,08,08,47,2.60
2016,02,08,08,48,2.60
2016,02,08,08,49,2.60
2016,02,08,08,50,2.60
2016,02,08,08,51,2.60
2016,02,08,08,52,2.70
2016,02,08,08,53,2.70
2016,02,08,08,54,2.70
2016,02,08,08,55,2.70
2016,02,08,08,56,2.70
2016,02,08,08,57,2.70
2016,02,08,08,58,2.80
2016,02,08,08,59,2.80
2016,02,08,09,00,2.80
2016,02,08,09,01,2.80
2016,02,08,09,02,2.80
2016,02,08,09,03,2.80
2016,02,08,09,04,2.80
2016,02,08,09,05,2.90
2016,02,08,09,06,2.90
2016,02,08,09,07,2.90
2016,02,08,09,08,2.90
2016,02,08,09,09,2.90
2016,02,08,09,10,2.90
2016,02,08,09,11,2.90
2016,02,08,09,12,2.90
2016,02,08,09,13,2.90
2016,02,08,09,14,2.90
2016,02,08,09,15,2.90
2016,02,08,09,16,2.90
2016,02,08,09,17,2.90
2016,02,08,09,18,3.00
2016,02,08,09,19,3.00
2016,02,08,09,20,3.00
2016,02,08,09,21,3.00
2016,02,08,09,22,3.00
2016,02,08,09,23,3.00
2016,02,08,09,24,3.10
2016,02,08,09,25,3.10
2016,02,08,09,26,3.10
2016,02,08,09,27,3.20
2016,02,08,09,28,3.20
2016,02,08,09,29,3.30
2016,02,08,09,30,3.30
2016,02,08,09,31,3.40
2016,02,08,09,32,3.40
2016,02,08,09,33,3.50
2016,02,08,09,34,3.50
2016,02,08,09,35,3.50
2016,02,08,09,36,3.60
2016,02,08,09,37,3.60
2016,02,08,09,38,3.70
2016,02,08,09,39,3.80
2016,02,08,09,40,3.80
2016,02,08,09,41,3.90
2016,02,08,09,42,3.90
2016,02,08,09,43,4.00
2016,02,08,09,44,4.00
2016,02,08,09,45,4.10
2016,02,08,09,46,4.20
2016,02,08,09,47,4.20
2016,02,08,09,48,4.30
2016,02,08,09,49,4.40
2016,02,08,09,50,4.40
2016,02,08,09,51,4.50
2016,02,08,09,52,4.60
2016,02,08,09,53,4.60
2016,02,08,09,54,4.70
2016,02,08,09,55,4.70
2016,02,08,09,56,4.80
2016,02,08,09,57,4.80
2016,02,08,09,58,4.90
2016,02,08,09,59,4.90
2016,02,08,10,00,4.90
2016,02,08,10,01,5.00
2016,02,08,10,02,5.10
2016,02,08,10,03,5.10
2016,02,08,10,04,5.10
2016,02,08,10,05,5.10
2016,02,08,10,06,5.20
2016,02,08,10,07,5.20
2016,02,08,10,08,5.30
2016,02,08,10,09,5.30
2016,02,08,10,10,5.40
2016,02,08,10,11,5.40
2016,02,08,10,12,5.50
2016,02,08,10,13,5.60
2016,02,08,10,14,5.70
2016,02,08,10,15,5.70
2016,02,08,10,16,5.80
2016,02,08,10,17,5.90
2016,02,08,10,18,5.90
2016,02,08,10,19,6.00
2016,02,08,10,20,6.10
2016,02,08,10,21,6.20
2016,02,08,10,22,6.30
2016,02,08,10,23,6.40
2016,02,08,10,24,6.50
2016,02,08,10,25,6.50
2016,02,08,10,26,6.60
2016,02,08,10,27,6.70
2016,02,08,10,28,6.80
2016,02,08,10,29,6.90
2016,02,08,10,30,7.00
2016,02,08,10,31,7.10
2016,02,08,10,32,7.20
2016,02,08,10,33,7.20
2016,02,08,10,34,7.30
2016,02,08,10,35,7.30
2016,02,08,10,36,7.40
2016,02,08,10,37,7.50
2016,02,08,10,38,7.60
2016,02,08,10,39,7.70
2016,02,08,10,40,7.70
2016,02,08,10,41,7.80
2016,02,08,10,42,7.80
2016,02,08,10,43,7.90
2016,02,08,10,44,7.90
2016,02,08,10,45,8.00
2016,02,08,10,46,8.00
2016,02,08,10,47,8.10
2016,02,08,10,48,8.20
2016,02,08,10,49,8.20
2016,02,08,10,50,8.30
2016,02,08,10,51,8.40
2016,02,08,10,52,8.40
2016,02,08,10,53,8.50
2016,02,08,10,54,8.60
2016,02,08,10,55,8.70
2016,02,08,10,56,8.70
2016,02,08,10,57,8.80
2016,02,08,10,58,8.90
2016,02,08,10,59,9.00
2016,02,08,11,00,9.00
2016,02,08,11,01,9.10
2016,02,08,11,02,9.20
2016,02,08,11,03,9.30
2016,02,08,11,04,9.40
2016,02,08,11,05,9.50
2016,02,08,11,06,9.50
2016,02,08,11,07,9.60
2016,02,08,11,08,9.60
2016,02,08,11,09,9.70
2016,02,08,11,10,9.80
2016,02,08,11,11,9.90
2016,02,08,11,12,10.00
2016,02,08,11,13,10.00
2016,02,08,11,14,10.10
2016,02,08,11,15,10.10
2016,02,08,11,16,10.20
2016,02,08,11,17,10.20
2016,02,08,11,18,10.30
2016,02,08,11,19,10.30
2016,02,08,11,20,10.40
2016,02,08,11,21,10.40
2016,02,08,11,22,10.40
2016,02,08,11,23,10.50
2016,02,08,11,24,10.50
2016,02,08,11,25,10.50
2016,02,08,11,26,10.50
2016,02,08,11,27,10.40
2016,02,08,11,28,10.40
2016,02,08,11,29,10.30
2016,02,08,11,30,10.20
2016,02,08,11,31,10.20
2016,02,08,11,32,10.20
2016,02,08,11,33,10.20
2016,02,08,11,34,10.20
2016,02,08,11,35,10.20
2016,02,08,11,36,10.30
2016,02,08,11,37,10.30
2016,02,08,11,38,10.30
2016,02,08,11,39,10.40
2016,02,08,11,40,10.40
2016,02,08,11,41,10.50
2016,02,08,11,42,10.60
2016,02,08,11,43,10.60
2016,02,08,11,44,10.70
2016,02,08,11,45,10.80
2016,02,08,11,46,10.80
2016,02,08,11,47,10.90
2016,02,08,11,48,10.90
2016,02,08,11,49,11.00
2016,02,08,11,50,11.00
2016,02,08,11,51,11.10
2016,02,08,11,52,11.10
2016,02,08,11,53,11.20
2016,02,08,11,54,11.30
2016,02,08,11,55,11.30
2016,02,08,11,56,11.30
2016,02,08,11,57,11.40
2016,02,08,11,58,11.50
2016,02,08,11,59,11.60
2016,02,08,12,00,11.60
2016,02,08,12,01,11.70
2016,02,08,12,02,11.70
2016,02,08,12,03,11.70
2016,02,08,12,04,11.80
2016,02,08,12,05,11.80
2016,02,08,12,06,11.80
2016,02,08,12,07,11.80
2016,02,08,12,08,11.90
2016,02,08,12,09,11.90
2016,02,08,12,10,12.00
2016,02,08,12,11,12.00
2016,02,08,12,12,12.10
2016,02,08,12,13,12.10
2016,02,08,12,14,12.10
2016,02,08,12,15,12.10
2016,02,08,12,16,12.10
2016,02,08,12,17,12.10
2016,02,08,12,18,12.10
2016,02,08,12,19,12.20
2016,02,08,12,20,12.20
2016,02,08,12,21,12.20
2016,02,08,12,22,12.20
2016,02,08,12,23,12.20
2016,02,08,12,24,12.30
2016,02,08,12,25,12.30
2016,02,08,12,26,12.30
2016,02,08,12,27,12.30
2016,02,08,12,28,12.40
2016,02,08,12,29,12.40
2016,02,08,12,30,12.40
2016,02,08,12,31,12.40
2016,02,08,12,32,12.40
2016,02,08,12,33,12.40
2016,02,08,12,34,12.40
2016,02,08,12,35,12.40
2016,02,08,12,36,12.40
2016,02,08,12,37,12.40
2016,02,08,12,38,12.40
2016,02,08,12,39,12.40
2016,02,08,12,40,12.40
2016,02,08,12,41,12.40
2016,02,08,12,42,12.50
2016,02,08,12,43,12.50
2016,02,08,12,44,12.50
2016,02,08,12,45,12.50
2016,02,08,12,46,12.60
2016,02,08,12,47,12.60
2016,02,08,12,48,12.60
2016,02,08,12,49,12.70
2016,02,08,12,50,12.70
2016,02,08,12,51,12.80
2016,02,08,12,52,12.80
2016,02,08,12,53,12.80
2016,02,08,12,54,12.80
2016,02,08,12,55,12.80
2016,02,08,12,56,12.80
2016,02,08,12,57,12.80
2016,02,08,12,58,12.80
2016,02,08,12,59,12.80
2016,02,08,13,00,12.80
2016,02,08,13,01,12.80
2016,02,08,13,02,12.90
2016,02,08,13,03,12.90
2016,02,08,13,04,12.90
2016,02,08,13,05,12.90
2016,02,08,13,06,12.90
2016,02,08,13,07,12.90
2016,02,08,13,08,13.00
2016,02,08,13,09,13.00
2016,02,08,13,10,13.00
2016,02,08,13,11,13.10
2016,02,08,13,12,13.10
2016,02,08,13,13,13.10
2016,02,08,13,14,13.10
2016,02,08,13,15,13.10
2016,02,08,13,16,13.20
2016,02,08,13,17,13.20
2016,02,08,13,18,13.20
2016,02,08,13,19,13.20
2016,02,08,13,20,13.20
2016,02,08,13,21,13.20
2016,02,08,13,22,13.20
2016,02,08,13,23,13.30
2016,02,08,13,24,13.30
2016,02,08,13,25,13.40
2016,02,08,13,26,13.40
2016,02,08,13,27,13.50
2016,02,08,13,28,13.50
2016,02,08,13,29,13.50
2016,02,08,13,30,13.50
2016,02,08,13,31,13.40
2016,02,08,13,32,13.40
2016,02,08,13,33,13.40
2016,02,08,13,34,13.40
2016,02,08,13,35,13.40
2016,02,08,13,36,13.40
2016,02,08,13,37,13.50
2016,02,08,13,38,13.50
2016,02,08,13,39,13.50
2016,02,08,13,40,13.50
2016,02,08,13,41,13.50
2016,02,08,13,42,13.60
2016,02,08,13,43,13.60
2016,02,08,13,44,13.60
2016,02,08,13,45,13.70
2016,02,08,13,46,13.70
2016,02,08,13,47,13.70
2016,02,08,13,48,13.70
2016,02,08,13,49,13.70
2016,02,08,13,50,13.70
2016,02,08,13,51,13.70
2016,02,08,13,52,13.70
2016,02,08,13,53,13.70
2016,02,08,13,54,13.80
2016,02,08,13,55,13.80
2016,02,08,13,56,13.80
2016,02,08,13,57,13.80
2016,02,08,13,58,13.70
2016,02,08,13,59,13.80
2016,02,08,14,00,13.80
2016,02,08,14,01,13.80
2016,02,08,14,02,13.90
2016,02,08,14,03,13.90
2016,02,08,14,04,14.00
2016,02,08,14,05,14.00
2016,02,08,14,06,14.10
2016,02,08,14,07,14.10
2016,02,08,14,08,14.10
2016,02,08,14,09,14.10
2016,02,08,14,10,14.10
2016,02,08,14,11,14.20
2016,02,08,14,12,14.20
2016,02,08,14,13,14.20
2016,02,08,14,14,14.20
2016,02,08,14,15,14.20
2016,02,08,14,16,14.30
2016,02,08,14,17,14.30
2016,02,08,14,18,14.30
2016,02,08,14,19,14.30
2016,02,08,14,20,14.30
2016,02,08,14,21,14.30
2016,02,08,14,22,14.20
2016,02,08,14,23,14.20
2016,02,08,14,24,14.20
2016,02,08,14,25,14.30
2016,02,08,14,26,14.30
2016,02,08,14,27,14.40
2016,02,08,14,28,14.40
2016,02,08,14,29,14.50
2016,02,08,14,30,14.50
2016,02,08,14,31,14.60
2016,02,08,14,32,14.60
2016,02,08,14,33,14.60
2016,02,08,14,34,14.60
2016,02,08,14,35,14.60
2016,02,08,14,36,14.50
2016,02,08,14,37,14.50
2016,02,08,14,38,14.50
2016,02,08,14,39,14.50
2016,02,08,14,40,14.50
2016,02,08,14,41,14.60
2016,02,08,14,42,14.60
2016,02,08,14,43,14.50
2016,02,08,14,44,14.50
2016,02,08,14,45,14.50
2016,02,08,14,46,14.40
2016,02,08,14,47,14.40
2016,02,08,14,48,14.40
2016,02,08,14,49,14.40
2016,02,08,14,50,14.40
2016,02,08,14,51,14.40
2016,02,08,14,52,14.50
2016,02,08,14,53,14.50
2016,02,08,14,54,14.50
2016,02,08,14,55,14.50
2016,02,08,14,56,14.50
2016,02,08,14,57,14.50
2016,02,08,14,58,14.40
2016,02,08,14,59,14.40
2016,02,08,15,00,14.40
2016,02,08,15,01,14.40
2016,02,08,15,02,14.40
2016,02,08,15,03,14.40
2016,02,08,15,04,14.40
2016,02,08,15,05,14.40
2016,02,08,15,06,14.30
2016,02,08,15,07,14.30
2016,02,08,15,08,14.20
2016,02,08,15,09,14.20
2016,02,08,15,10,14.20
2016,02,08,15,11,14.20
2016,02,08,15,12,14.20
2016,02,08,15,13,14.20
2016,02,08,15,14,14.20
2016,02,08,15,15,14.20
2016,02,08,15,16,14.20
2016,02,08,15,17,14.20
2016,02,08,15,18,14.20
2016,02,08,15,19,14.20
2016,02,08,15,20,14.20
2016,02,08,15,21,14.20
2016,02,08,15,22,14.20
2016,02,08,15,23,14.20
2016,02,08,15,24,14.20
2016,02,08,15,25,14.20
2016,02,08,15,26,14.20
2016,02,08,15,27,14.20
2016,02,08,15,28,14.20
2016,02,08,15,29,14.20
2016,02,08,15,30,14.20
2016,02,08,15,31,14.10
2016,02,08,15,32,14.10
2016,02,08,15,33,14.10
2016,02,08,15,34,14.10
2016,02,08,15,35,14.10
2016,02,08,15,36,14.00
2016,02,08,15,37,14.00
2016,02,08,15,38,13.90
2016,02,08,15,39,13.90
2016,02,08,15,40,13.90
2016,02,08,15,41,13.90
2016,02,08,15,42,13.80
2016,02,08,15,43,13.80
2016,02,08,15,44,13.80
2016,02,08,15,45,13.80
2016,02,08,15,46,13.80
2016,02,08,15,47,13.70
2016,02,08,15,48,13.70
2016,02,08,15,49,13.70
2016,02,08,15,50,13.70
2016,02,08,15,51,13.70
2016,02,08,15,52,13.70
2016,02,08,15,53,13.70
2016,02,08,15,54,13.60
2016,02,08,15,55,13.60
2016,02,08,15,56,13.60
2016,02,08,15,57,13.60
2016,02,08,15,58,13.60
2016,02,08,15,59,13.60
2016,02,08,16,00,13.60
2016,02,08,16,01,13.60
2016,02,08,16,02,13.60
2016,02,08,16,03,13.50
2016,02,08,16,04,13.50
2016,02,08,16,05,13.50
2016,02,08,16,06,13.50
2016,02,08,16,07,13.40
2016,02,08,16,08,13.40
2016,02,08,16,09,13.40
2016,02,08,16,10,13.40
2016,02,08,16,11,13.40
2016,02,08,16,12,13.40
2016,02,08,16,13,13.40
2016,02,08,16,14,13.40
2016,02,08,16,15,13.40
2016,02,08,16,16,13.30
2016,02,08,16,17,13.30
2016,02,08,16,18,13.30
2016,02,08,16,19,13.30
2016,02,08,16,20,13.30
2016,02,08,16,21,13.30
2016,02,08,16,22,13.30
2016,02,08,16,23,13.30
2016,02,08,16,24,13.20
2016,02,08,16,25,13.20
2016,02,08,16,26,13.20
2016,02,08,16,27,13.20
2016,02,08,16,28,13.20
2016,02,08,16,29,13.10
2016,02,08,16,30,13.10
2016,02,08,16,31,13.10
2016,02,08,16,32,13.10
2016,02,08,16,33,13.10
2016,02,08,16,34,13.10
2016,02,08,16,35,13.00
2016,02,08,16,36,13.00
2016,02,08,16,37,12.90
2016,02,08,16,38,12.90
2016,02,08,16,39,12.90
2016,02,08,16,40,12.90
2016,02,08,16,41,12.80
2016,02,08,16,42,12.80
2016,02,08,16,43,12.80
2016,02,08,16,44,12.70
2016,02,08,16,45,12.70
2016,02,08,16,46,12.70
2016,02,08,16,47,12.60
2016,02,08,16,48,12.60
2016,02,08,16,49,12.50
2016,02,08,16,50,12.50
2016,02,08,16,51,12.40
2016,02,08,16,52,12.30
2016,02,08,16,53,12.30
2016,02,08,16,54,12.20
2016,02,08,16,55,12.20
2016,02,08,16,56,12.10
2016,02,08,16,57,12.10
2016,02,08,16,58,12.00
2016,02,08,16,59,11.90
2016,02,08,17,00,11.80
2016,02,08,17,01,11.80
2016,02,08,17,02,11.70
2016,02,08,17,03,11.70
2016,02,08,17,04,11.60
2016,02,08,17,05,11.60
2016,02,08,17,06,11.50
2016,02,08,17,07,11.40
2016,02,08,17,08,11.40
2016,02,08,17,09,11.30
2016,02,08,17,10,11.20
2016,02,08,17,11,11.20
2016,02,08,17,12,11.10
2016,02,08,17,13,11.00
2016,02,08,17,14,11.00
2016,02,08,17,15,10.90
2016,02,08,17,16,10.80
2016,02,08,17,17,10.80
2016,02,08,17,18,10.70
2016,02,08,17,19,10.70
2016,02,08,17,20,10.60
2016,02,08,17,21,10.50
2016,02,08,17,22,10.50
2016,02,08,17,23,10.40
2016,02,08,17,24,10.30
2016,02,08,17,25,10.30
2016,02,08,17,26,10.20
2016,02,08,17,27,10.20
2016,02,08,17,28,10.10
2016,02,08,17,29,10.00
2016,02,08,17,30,10.00
2016,02,08,17,31,9.90
2016,02,08,17,32,9.80
2016,02,08,17,33,9.80
2016,02,08,17,34,9.80
2016,02,08,17,35,9.70
2016,02,08,17,36,9.60
2016,02,08,17,37,9.60
2016,02,08,17,38,9.60
2016,02,08,17,39,9.60
2016,02,08,17,40,9.50
2016,02,08,17,41,9.40
2016,02,08,17,42,9.40
2016,02,08,17,43,9.30
2016,02,08,17,44,9.30
2016,02,08,17,45,9.30
2016,02,08,17,46,9.20
2016,02,08,17,47,9.20
2016,02,08,17,48,9.20
2016,02,08,17,49,9.10
2016,02,08,17,50,9.10
2016,02,08,17,51,9.00
2016,02,08,17,52,9.00